SCP
0 0 0 0 0 0 0 0 0 0 0 0 0 0 0 0 0 0 0 0 0 0 0 0 1 1 1 1 1 1 1 1 1 1 1 1 1 1 1 1 0 0 0 0
0 0 0 0 0 0 0 0 0 0 0 0 0 0 0 0 0 0 0 0 0 0 0 1 1 1 1 1 1 1 1 1 1 1 1 1 0 0 0 0 0 0 0 0
0 0 0 0 0 0 0 0 0 0 0 0 0 0 0 0 0 0 0 0 0 0 1 1 1 1 1 1 1 1 1 1 1 1 1 0 0 0 0 0 0 0 0 0
0 0 0 0 0 0 0 0 0 0 0 0 0 0 0 0 0 0 0 0 1 1 1 1 1 1 1 1 1 1 1 1 1 1 0 1 1 1 0 0 0 0 0 0
0 0 0 0 0 0 0 0 0 0 0 0 0 0 0 0 0 0 0 0 0 0 1 1 1 1 1 1 1 1 1 1 0 0 0 0 1 0 1 1 1 1 1 0
0 0 0 0 0 0 0 0 0 0 0 0 0 0 0 0 0 0 0 0 0 0 0 0 1 1 1 1 1 1 1 1 0 0 0 0 0 0 0 1 1 1 1 1
0 0 0 0 0 0 0 0 0 0 0 0 0 0 0 0 0 0 0 0 0 0 0 0 0 1 1 1 1 1 1 1 0 0 0 0 0 0 1 1 1 1 1 1
0 0 0 0 0 0 0 0 0 0 0 0 0 0 0 0 0 0 0 0 0 0 0 0 0 0 1 1 1 1 1 1 1 0 0 0 0 1 1 1 1 1 1 0
0 0 0 0 0 0 0 0 0 0 0 0 0 0 0 0 0 0 0 0 0 0 0 0 0 0 1 1 1 1 1 1 1 1 1 1 1 1 1 1 1 0 0 0
0 0 0 0 0 0 0 0 0 0 0 0 0 0 0 0 0 0 0 0 0 0 0 0 0 0 1 1 1 1 1 1 1 1 1 1 1 1 1 1 1 0 0 0
0 0 0 0 0 0 0 0 0 0 0 0 0 0 0 0 0 0 0 0 0 0 0 0 0 0 0 1 1 1 1 1 0 0 0 0 1 1 1 1 0 0 0 0
0 0 0 0 0 0 0 0 0 0 0 0 0 0 0 0 0 0 0 0 0 0 0 0 0 0 0 0 0 0 0 0 0 0 0 0 0 0 0 0 0 0 0 0
0 0 0 0 0 0 0 0 0 0 0 0 0 0 0 0 0 0 0 0 0 0 0 0 0 0 0 0 0 0 0 0 0 0 0 0 0 0 0 0 0 0 0 0
0 0 0 0 0 0 0 0 0 0 0 0 0 0 0 0 0 0 0 0 0 0 0 0 0 0 0 0 0 0 0 0 0 0 0 0 0 0 0 0 0 0 0 0
0 0 0 0 0 0 0 0 0 0 0 0 0 0 0 0 0 0 0 0 0 0 0 0 0 0 0 0 0 0 0 0 0 0 0 0 0 0 0 0 0 0 0 0
0 0 0 0 0 0 0 0 0 0 0 0 0 0 0 0 0 0 0 0 0 0 0 1 1 0 0 0 0 0 0 0 0 0 0 0 0 0 0 0 0 0 0 0
0 0 0 0 0 0 0 0 0 0 0 0 0 0 0 0 0 0 0 0 0 0 1 1 1 0 0 0 0 0 0 0 0 0 0 0 0 0 0 0 0 0 0 0
0 0 0 0 0 0 0 0 0 0 0 0 0 0 0 0 0 0 0 0 0 0 0 0 0 0 0 0 0 0 0 0 0 0 0 0 0 0 0 0 0 0 0 0
0 0 0 0 0 0 0 0 0 0 0 0 0 0 0 0 0 0 0 0 0 0 0 0 0 0 0 0 0 0 0 0 0 0 0 0 0 0 0 0 0 0 0 0
0 0 0 0 0 0 0 0 0 0 0 0 0 0 0 0 0 0 0 0 0 0 0 0 0 0 0 0 0 0 0 0 0 0 0 0 0 0 0 0 0 0 0 0
0 0 0 0 0 0 0 0 0 0 0 0 0 0 0 0 0 0 0 0 0 0 0 0 0 0 0 0 0 0 0 0 0 0 0 0 0 0 0 0 0 0 0 0
0 0 0 0 0 0 0 0 0 0 0 0 0 0 0 0 0 0 0 0 0 0 0 0 0 0 0 0 0 0 0 0 0 0 0 0 0 0 0 0 0 0 0 0
0 0 0 0 0 0 0 0 0 0 0 0 0 0 0 0 0 0 0 0 0 0 0 0 0 0 0 0 0 0 0 0 0 0 0 0 0 0 0 0 0 0 0 0
0 0 0 0 0 0 0 0 0 0 0 0 0 0 0 0 0 0 0 0 0 0 0 0 0 0 0 0 0 0 0 0 0 0 0 0 0 0 0 0 0 0 0 0
0 0 0 0 0 0 0 0 0 0 0 0 0 0 0 0 0 0 0 0 0 0 0 0 0 0 0 0 0 0 0 0 0 0 0 0 0 0 0 0 0 0 0 0
0 0 0 0 0 0 0 0 0 0 0 0 0 0 0 0 0 0 0 0 0 0 0 0 0 0 0 0 0 0 0 0 0 0 0 0 0 0 0 0 0 0 0 0
0 0 0 0 0 0 0 0 0 0 0 0 0 0 0 0 0 0 0 0 0 0 0 0 0 0 0 0 0 0 0 0 0 0 0 0 0 0 0 0 0 0 0 0
Wind_Speed
9 7 8 9 10 11 12 11 12 8 7 5 2 2 2 3 4 5 5 5 5 5 5 5 5 5 4 4 3 3 2 2 2 2 2 2 2 2 2 2 3 3 4 4
9 8 9 10 10 11 12 12 11 9 7 3 1 1 2 3 3 4 5 5 5 5 5 5 5 4 4 4 4 3 3 2 2 2 1 1 1 2 2 2 2 2 3 4
9 8 10 12 10 10 10 9 9 10 5 2 2 2 2 3 3 4 4 4 5 5 5 5 4 4 4 4 4 3 3 2 2 2 2 1 1 1 1 2 2 2 3 2
7 7 13 3 1 5 7 6 6 6 4 3 2 1 1 1 2 3 3 4 4 4 4 4 4 3 4 4 4 3 3 2 2 1 1 1 0 1 1 2 2 2 2 2
7 10 8 4 2 3 6 6 3 4 3 2 1 2 2 1 1 2 3 3 3 3 4 4 4 3 4 3 4 3 2 2 1 1 1 1 1 1 1 2 2 2 2 2
8 11 9 1 1 2 6 7 1 3 3 2 4 5 1 1 1 2 2 2 3 3 4 4 3 3 3 3 3 2 1 1 0 1 1 1 1 2 2 2 2 3 2 2
11 10 4 3 1 3 7 1 1 2 3 3 3 3 1 1 2 2 3 3 3 3 3 3 3 3 3 2 2 1 1 1 1 1 2 2 2 2 2 2 2 3 3 3
8 10 4 3 1 2 3 3 2 2 2 1 0 1 2 2 3 3 3 3 3 3 3 2 2 2 3 2 1 1 1 1 1 1 2 1 2 2 3 3 3 3 3 3
3 1 3 1 1 2 3 3 3 2 1 1 2 2 2 2 3 2 2 3 3 3 3 2 1 2 2 1 1 1 2 1 1 1 2 2 2 3 3 3 3 3 3 3
4 3 1 1 1 2 3 3 3 2 1 2 2 2 2 3 2 2 3 3 2 2 2 1 1 1 1 1 1 2 1 1 1 2 2 2 2 3 3 3 3 3 3 3
6 3 3 3 2 2 2 2 1 0 1 1 2 2 2 2 2 2 2 2 2 2 2 1 1 1 1 1 2 2 2 2 2 2 2 2 2 2 3 2 2 4 3 3
4 1 4 3 2 2 1 1 0 1 1 0 1 2 2 2 2 2 1 2 2 2 2 1 1 1 1 2 2 2 2 3 3 2 2 3 3 2 1 2 1 2 4 5
3 3 3 3 2 1 1 1 0 0 1 1 1 2 2 2 2 2 1 2 2 2 2 1 1 1 1 1 2 3 3 2 2 2 3 3 3 3 2 2 3 4 4 4
2 2 3 2 1 1 1 0 1 1 1 1 2 2 2 2 2 2 1 2 2 2 2 2 2 1 1 1 2 3 3 2 3 3 3 3 3 3 3 3 3 2 3 5
2 2 2 0 1 1 0 1 1 1 1 1 1 2 2 2 2 2 2 2 2 2 2 2 1 1 1 2 2 3 3 2 2 3 3 3 3 4 3 4 4 3 3 3
2 1 1 1 1 1 1 1 1 1 1 1 1 2 2 2 2 2 2 2 2 3 2 1 2 2 2 2 3 3 4 3 4 4 4 3 3 4 4 4 4 3 3 3
3 2 2 2 1 1 1 1 2 2 2 2 2 2 2 2 2 2 2 2 2 2 2 2 3 3 3 3 4 4 4 3 5 5 4 4 3 3 4 4 4 3 3 2
3 3 3 2 1 1 1 1 1 2 2 2 2 2 2 3 2 2 2 2 2 2 2 3 3 3 4 4 4 5 4 4 4 4 4 4 4 4 4 4 4 5 4 3
2 2 1 1 1 1 1 1 1 1 1 1 1 1 2 2 2 3 3 3 3 3 2 2 2 4 4 4 4 5 5 5 5 4 4 4 5 5 4 4 5 5 4 4
1 0 1 1 1 0 0 1 1 1 1 1 1 1 1 2 2 2 2 3 3 3 3 2 3 4 4 4 5 5 5 5 5 5 5 5 4 4 4 4 5 5 5 4
1 1 1 1 0 0 1 1 1 1 0 1 1 2 2 2 2 2 2 3 2 2 3 3 4 4 4 3 4 6 5 5 5 5 5 5 4 5 4 4 4 4 4 5
1 1 1 1 1 1 1 1 1 1 1 1 2 2 2 2 2 2 3 3 3 2 4 4 3 2 3 5 5 6 5 5 5 5 5 5 5 5 5 5 5 5 5 5
1 1 0 0 0 1 1 1 1 1 2 2 3 3 3 3 3 3 3 3 3 3 4 4 4 3 4 6 6 6 6 5 5 5 5 5 5 5 5 5 5 5 5 5
1 1 0 0 1 1 1 1 2 2 3 3 3 3 3 3 3 3 3 2 2 4 4 3 3 4 6 5 5 6 6 5 5 5 5 5 5 5 5 5 5 5 5 6
1 1 1 1 2 2 1 2 2 2 3 2 3 3 3 3 3 3 3 3 3 4 5 4 6 7 7 5 5 5 5 5 5 5 5 5 6 5 5 5 5 6 5 5
1 1 1 2 2 2 2 2 2 2 2 2 2 2 2 2 2 3 3 4 5 5 6 5 5 5 5 5 5 5 5 5 5 6 6 6 6 6 5 5 7 5 5 5
1 1 1 1 1 2 2 2 2 3 2 2 2 3 3 3 3 3 4 4 4 4 4 4 5 5 4 4 4 5 5 5 5 5 5 6 5 5 5 6 5 5 5 5
Wind_Direction
265 272 254 243 239 231 238 252 259 261 264 282 274 257 175 166 167 163 161 161 159 154 145 143 142 139 132 128 124 123 134 141 141 157 184 199 207 222 217 219 225 226 222 217
248 245 248 247 241 239 241 251 255 260 266 295 279 229 151 156 163 169 172 172 165 160 155 152 150 152 146 140 138 134 133 130 131 141 150 175 207 223 231 234 232 224 235 228
244 238 246 243 237 238 237 241 251 257 267 276 265 221 198 182 179 176 167 167 167 166 167 164 159 156 154 146 141 143 142 133 126 134 126 134 214 210 227 237 231 234 240 236
247 233 241 243 298 252 243 247 251 260 271 283 295 259 220 214 195 183 172 168 166 164 164 163 155 153 151 150 148 154 152 141 138 152 153 147 213 271 263 250 243 249 249 231
244 245 241 215 211 250 241 244 267 266 268 274 271 203 177 165 182 186 172 167 166 168 163 155 151 150 158 155 156 160 153 146 159 179 193 210 227 254 259 256 252 246 240 226
241 250 252 160 90 277 253 228 236 268 256 256 252 248 190 119 153 139 135 135 148 148 141 141 140 146 162 157 155 161 155 160 182 229 232 235 236 250 248 248 249 245 223 220
242 249 249 44 331 232 239 301 17 274 266 247 257 314 40 121 136 130 136 138 136 133 135 132 131 150 167 163 163 170 164 178 192 231 236 237 241 245 249 253 256 248 234 225
240 246 238 66 194 256 350 2 307 283 280 259 338 101 143 151 138 135 141 144 138 129 119 114 125 151 169 166 161 184 191 196 201 246 263 242 248 253 253 255 243 232 228 231
266 311 65 73 30 14 333 309 311 298 286 179 152 138 128 131 135 134 139 141 138 126 120 122 138 153 170 162 189 201 202 198 212 255 270 280 264 251 246 243 252 247 238 238
242 210 195 224 317 331 317 306 311 299 217 175 167 137 125 124 119 128 136 136 139 140 136 130 134 150 184 184 211 202 197 217 225 247 260 270 278 270 266 264 261 256 255 259
240 242 232 215 269 297 313 328 333 6 211 187 161 150 138 137 137 140 142 146 163 170 173 160 149 170 190 198 211 217 220 227 240 247 268 279 271 281 282 283 291 277 281 278
269 268 270 280 281 269 272 302 20 98 99 116 158 146 144 146 145 149 165 174 184 191 190 179 197 216 214 208 216 226 234 241 247 253 259 267 267 255 231 265 257 252 268 279
300 308 293 286 270 256 258 286 33 152 179 170 167 157 156 151 152 159 182 193 200 208 208 202 210 221 243 236 225 232 249 259 267 268 272 279 279 278 273 243 224 227 235 239
269 275 268 253 239 226 251 192 169 161 179 191 186 178 170 167 171 185 214 221 219 221 225 232 227 233 243 236 240 246 249 238 261 262 267 275 279 282 281 283 278 261 221 214
239 255 268 267 153 167 188 183 169 159 168 172 180 176 175 185 199 221 230 230 226 228 238 238 230 242 249 246 245 254 256 252 251 267 261 261 267 269 270 271 275 277 265 207
227 254 235 201 196 218 223 222 201 194 200 190 186 186 196 208 214 230 228 231 231 243 251 253 267 260 254 256 256 250 247 238 247 255 256 257 259 265 268 269 271 277 281 276
217 235 230 226 211 196 211 236 239 229 216 206 200 201 214 217 215 211 224 234 241 244 242 252 263 265 255 252 255 255 252 223 221 246 253 261 269 271 271 273 274 275 277 294
233 244 240 223 212 209 214 231 238 232 228 233 208 208 216 210 222 238 242 234 225 235 254 263 272 275 262 256 260 264 259 252 239 246 254 259 268 272 272 271 273 275 272 239
253 234 215 201 211 216 240 280 277 262 255 233 231 235 237 235 232 240 244 239 237 243 260 279 278 265 263 261 266 256 258 257 253 248 251 249 251 259 267 272 276 276 274 270
277 222 205 198 180 166 309 315 302 280 259 217 195 217 258 261 257 264 271 273 282 297 297 294 277 270 267 262 264 263 260 258 255 251 248 249 252 258 262 267 272 271 270 268
212 198 196 180 149 326 326 293 262 240 280 277 249 253 269 276 273 278 275 277 292 302 290 266 260 269 271 287 260 265 267 265 260 257 256 253 252 257 261 264 267 270 270 269
234 215 230 253 267 292 305 287 267 272 285 288 281 276 276 274 271 275 278 285 292 307 285 277 275 309 317 295 271 269 268 264 261 262 261 260 257 256 258 260 261 265 266 269
298 301 252 268 298 314 317 300 290 284 287 288 284 281 279 282 283 281 285 299 304 315 295 297 320 325 298 274 273 273 270 266 264 263 261 258 255 255 257 258 259 263 264 265
320 305 291 269 281 272 270 287 294 287 282 281 280 272 267 268 271 276 284 285 278 284 288 296 294 286 274 271 275 273 271 267 263 263 265 263 261 258 257 258 258 258 261 264
318 294 270 261 262 261 257 264 275 274 274 278 275 267 269 270 276 291 298 298 288 272 278 265 247 254 264 275 277 278 274 274 276 279 276 272 268 264 260 258 259 261 263 265
287 282 290 291 304 303 294 291 294 295 294 293 296 296 290 281 273 274 278 284 287 280 282 287 281 259 262 269 274 276 276 271 262 261 267 270 269 269 268 269 267 266 266 268
261 259 253 262 283 291 297 299 301 301 301 302 305 299 290 281 278 282 287 288 289 286 287 288 290 287 280 278 282 283 280 281 280 277 275 273 272 268 265 265 267 269 269 267